SITRO-AIS 26

Last updated on Sat Aug 15 2026 00:03:45 GMT+0000 (Coordinated Universal Time)

1 59067U 24039S 26226.60318737 .00002394 00000+0 18612-3 0 9996 2 59067 95.3861 275.1136 0146185 123.9334 237.5891 14.93614449133430
UTC large
Height (km)
Speed (km/s)
/
Latitude / Longitude
Inclination (degrees)
Orbital Period (minutes)
Azimuth
Elevation
Range (km)
Doppler Factor

Next 0 passes for location: London (51.5072 / 0.1276)

No passes found over London.
SITRO-AIS 26